Location: Newark
(55.7083°N, 13.1992°E)
Time: 06:51:24
(UTC+00:00)

Transit 2A - Visible Passes

Search period start: 25 February 2020 00:00
Search period end: 06 March 2020 00:00
Orbit: 599 x 959 km, 66.7° (Epoch: 24 February)

Date Brightness Start Highest point End Pass type
(mag) Time Alt. Az. Time Alt. Az. Time Alt. Az.
25 Feb 6.9 17:30:17 10° NW 17:34:33 31° NNE 17:38:30 13° E visible
25 Feb 5.8 19:13:21 10° NW 19:18:17 86° NE 19:19:00 67° SE visible
25 Feb 8.1 20:57:03 10° WNW 20:59:31 21° W 20:59:31 21° W visible
26 Feb 5.9 18:39:13 10° NW 18:44:06 69° NE 18:46:08 37° ESE visible
26 Feb 7.4 20:22:38 10° WNW 20:26:39 31° WSW 20:26:39 31° WSW visible
27 Feb 6.1 18:05:06 10° NW 18:09:54 55° NE 18:13:20 21° ESE visible
27 Feb 6.9 19:48:20 10° NW 19:53:02 41° WSW 19:53:51 38° SW visible
28 Feb 6.4 17:30:58 10° NW 17:35:39 45° NE 17:40:38 11° ESE visible
28 Feb 6.5 19:14:06 10° NW 19:18:59 54° SW 19:21:09 33° S visible
28 Feb 8.6 20:59:15 10° W 21:01:16 12° WSW 21:01:41 12° WSW visible
29 Feb 6.2 18:39:55 10° NW 18:44:53 71° SW 18:48:32 21° SSE visible
29 Feb 8.3 20:24:08 10° WNW 20:27:24 17° WSW 20:29:04 15° SW visible
01 Mar 6.0 18:05:46 10° NW 18:10:45 90° SW 18:16:03 11° SE visible
01 Mar 8.0 19:49:31 10° WNW 19:53:28 23° WSW 19:56:35 14° SSW visible
02 Mar 6.0 17:31:37 10° NW 17:36:35 72° NE 17:42:04 10° SE visible
02 Mar 7.7 19:15:04 10° WNW 19:19:30 30° WSW 19:24:15 10° S visible
03 Mar 7.3 18:40:46 10° NW 18:45:29 39° WSW 18:50:39 10° S visible
04 Mar 6.8 18:06:31 10° NW 18:11:26 52° SW 18:16:51 10° SSE visible
04 Mar 8.8 19:51:56 10° W 19:53:41 12° WSW 19:55:29 10° SW visible
05 Mar 6.4 17:32:19 10° NW 17:37:20 67° SW 17:42:53 10° SSE visible
05 Mar 8.7 19:16:39 10° WNW 19:19:49 16° WSW 19:23:07 10° SW visible
